| time (UTC) | temp F | wind direction | speed MPH | gust MPH | rain 1hr in | rain 24hr in | rain mn in | humidity % | barometer mb |
| 20260509003955 | 57 | 0 | 0.0 | 0.0 | 0.00 | 0.02 | 0.00 | 87 | 1016.3 |
| 20260509002955 | 57 | 0 | 0.0 | 0.0 | 0.00 | 0.02 | 0.00 | 86 | 1016.3 |
| 20260509000959 | 57 | 0 | 0.0 | 0.0 | 0.00 | 0.02 | 0.00 | 86 | 1016.2 |
| 20260508235956 | 57 | 0 | 0.0 | 0.0 | 0.00 | 0.02 | 0.00 | 87 | 1016.2 |
| 20260508234959 | 57 | 0 | 0.0 | 0.0 | 0.00 | 0.02 | 0.00 | 86 | 1016.2 |
| 20260508233957 | 58 | 0 | 0.0 | 0.0 | 0.00 | 0.02 | 0.00 | 85 | 1016.1 |
| 20260508231955 | 58 | 0 | 0.0 | 0.0 | 0.00 | 0.02 | 0.00 | 86 | 1016.1 |
| 20260508230956 | 58 | 0 | 0.0 | 0.0 | 0.00 | 0.02 | 0.00 | 86 | 1016.1 |
| 20260508230009 | 58 | 0 | 0.0 | 0.0 | 0.00 | 0.02 | 0.00 | 85 | 1016.0 |
| 20260508224956 | 58 | 0 | 0.0 | 0.0 | 0.00 | 0.02 | 0.00 | 85 | 1016.0 |
| 20260508223957 | 58 | 0 | 0.0 | 0.0 | 0.00 | 0.02 | 0.00 | 85 | 1016.1 |
| 20260508220955 | 58 | 0 | 0.0 | 0.0 | 0.00 | 0.02 | 0.00 | 85 | 1016.0 |
| 20260508220001 | 59 | 0 | 0.0 | 0.0 | 0.00 | 0.02 | 0.00 | 85 | 1015.9 |
| 20260508214956 | 59 | 50 | 0.0 | 1.0 | 0.00 | 0.02 | 0.02 | 85 | 1015.9 |
| 20260508211956 | 60 | 0 | 0.0 | 0.0 | 0.00 | 0.02 | 0.02 | 84 | 1015.6 |
| 20260508210956 | 60 | 0 | 0.0 | 0.0 | 0.00 | 0.02 | 0.02 | 84 | 1015.5 |
| 20260508205956 | 60 | 74 | 0.0 | 1.0 | 0.00 | 0.02 | 0.02 | 83 | 1015.4 |
| 20260508204956 | 60 | 0 | 0.0 | 0.0 | 0.00 | 0.02 | 0.02 | 83 | 1015.4 |
| 20260508203959 | 61 | 0 | 0.0 | 0.0 | 0.00 | 0.02 | 0.02 | 82 | 1015.4 |
| 20260508202956 | 61 | 65 | 0.0 | 4.0 | 0.00 | 0.02 | 0.02 | 82 | 1015.3 |
| 20260508201956 | 62 | 69 | 0.0 | 1.0 | 0.00 | 0.02 | 0.02 | 82 | 1015.4 |
| 20260508195956 | 62 | 0 | 0.0 | 0.0 | 0.00 | 0.02 | 0.02 | 81 | 1015.1 |
| 20260508194955 | 63 | 0 | 0.0 | 0.0 | 0.00 | 0.02 | 0.02 | 80 | 1015.1 |
| 20260508193956 | 64 | 0 | 0.0 | 0.0 | 0.00 | 0.02 | 0.02 | 79 | 1015.1 |
| 20260508192956 | 64 | 86 | 0.0 | 2.0 | 0.00 | 0.02 | 0.02 | 78 | 1015.0 |
| 20260508191956 | 65 | 0 | 0.0 | 0.0 | 0.00 | 0.02 | 0.02 | 75 | 1014.9 |
| 20260508191000 | 67 | 0 | 0.0 | 0.0 | 0.00 | 0.02 | 0.02 | 72 | 1014.6 |
| 20260508190009 | 67 | 0 | 0.0 | 0.0 | 0.00 | 0.02 | 0.02 | 71 | 1014.5 |
| 20260508184956 | 67 | 0 | 1.0 | 0.0 | 0.00 | 0.02 | 0.02 | 71 | 1014.4 |
| 20260508184006 | 67 | 0 | 2.0 | 0.0 | 0.00 | 0.02 | 0.02 | 71 | 1014.2 |
| 20260508182956 | 67 | 0 | 1.0 | 0.0 | 0.00 | 0.02 | 0.02 | 70 | 1014.1 |
| 20260508180956 | 68 | 0 | 0.0 | 0.0 | 0.00 | 0.02 | 0.02 | 68 | 1013.8 |
| 20260508175956 | 69 | 0 | 0.0 | 0.0 | 0.00 | 0.02 | 0.02 | 66 | 1013.7 |
| 20260508174956 | 69 | 0 | 0.0 | 0.0 | 0.00 | 0.02 | 0.02 | 66 | 1013.6 |
| 20260508173956 | 69 | 0 | 0.0 | 0.0 | 0.00 | 0.02 | 0.02 | 65 | 1013.5 |
| 20260508172956 | 69 | 0 | 0.0 | 0.0 | 0.00 | 0.02 | 0.02 | 65 | 1013.4 |
| 20260508171956 | 69 | 47 | 0.0 | 3.0 | 0.00 | 0.02 | 0.02 | 65 | 1013.3 |
| 20260508165956 | 70 | 0 | 0.0 | 0.0 | 0.00 | 0.02 | 0.02 | 62 | 1013.2 |
| 20260508164956 | 70 | 0 | 0.0 | 0.0 | 0.00 | 0.02 | 0.02 | 63 | 1013.1 |
| 20260508163956 | 71 | 0 | 0.0 | 0.0 | 0.00 | 0.02 | 0.02 | 62 | 1013.1 |
| 20260508162959 | 71 | 0 | 0.0 | 0.0 | 0.00 | 0.02 | 0.02 | 62 | 1013.1 |
| 20260508161957 | 71 | 0 | 0.0 | 0.0 | 0.00 | 0.02 | 0.02 | 61 | 1013.1 |
| 20260508160956 | 71 | 0 | 0.0 | 0.0 | 0.00 | 0.02 | 0.02 | 61 | 1013.1 |
| 20260508153956 | 70 | 37 | 1.0 | 10.0 | 0.00 | 0.02 | 0.02 | 63 | 1013.2 |
| 20260508150956 | 70 | 76 | 0.0 | 4.0 | 0.00 | 0.02 | 0.02 | 65 | 1013.4 |
| 20260508145957 | 69 | 40 | 7.0 | 11.0 | 0.00 | 0.02 | 0.02 | 66 | 1013.4 |
| 20260508144956 | 69 | 35 | 2.0 | 8.0 | 0.00 | 0.02 | 0.02 | 66 | 1013.5 |
| 20260508143005 | 68 | 24 | 10.0 | 16.0 | 0.00 | 0.02 | 0.02 | 69 | 1013.8 |
| 20260508141957 | 68 | 31 | 3.0 | 14.0 | 0.00 | 0.02 | 0.02 | 68 | 1013.8 |
| 20260508140957 | 67 | 31 | 8.0 | 18.0 | 0.00 | 0.03 | 0.02 | 69 | 1013.8 |
| 20260508135957 | 67 | 69 | 3.0 | 11.0 | 0.00 | 0.03 | 0.02 | 71 | 1014.0 |
| 20260508134956 | 67 | 53 | 6.0 | 11.0 | 0.00 | 0.03 | 0.02 | 73 | 1014.1 |
| 20260508133956 | 66 | 36 | 7.0 | 14.0 | 0.02 | 0.03 | 0.02 | 74 | 1014.1 |
| 20260508133005 | 65 | 75 | 2.0 | 2.0 | 0.02 | 0.03 | 0.02 | 77 | 1014.3 |
| 20260508131958 | 64 | 26 | 3.0 | 10.0 | 0.02 | 0.03 | 0.02 | 79 | 1014.4 |
| 20260508130957 | 63 | 38 | 6.0 | 14.0 | 0.02 | 0.03 | 0.02 | 79 | 1014.5 |
| 20260508130000 | 63 | 41 | 5.0 | 12.0 | 0.02 | 0.03 | 0.02 | 82 | 1014.6 |
| 20260508123956 | 65 | 38 | 13.0 | 19.0 | 0.00 | 0.01 | 0.00 | 74 | 1014.6 |
| 20260508122957 | 65 | 42 | 6.0 | 18.0 | 0.00 | 0.01 | 0.00 | 72 | 1014.7 |
| 20260508122000 | 66 | 56 | 7.0 | 8.0 | 0.00 | 0.01 | 0.00 | 72 | 1014.6 |
| 20260508120956 | 66 | 75 | 4.0 | 5.0 | 0.00 | 0.01 | 0.00 | 71 | 1014.5 |
| 20260508115957 | 66 | 54 | 3.0 | 8.0 | 0.00 | 0.01 | 0.00 | 72 | 1014.5 |
| 20260508114957 | 66 | 52 | 3.0 | 4.0 | 0.00 | 0.01 | 0.00 | 71 | 1014.4 |
| 20260508113957 | 66 | 29 | 3.0 | 8.0 | 0.00 | 0.01 | 0.00 | 70 | 1014.3 |
| 20260508112958 | 66 | 340 | 2.0 | 12.0 | 0.00 | 0.01 | 0.00 | 70 | 1014.3 |
| 20260508111956 | 67 | 87 | 0.0 | 1.0 | 0.00 | 0.01 | 0.00 | 69 | 1014.2 |
| 20260508105956 | 67 | 0 | 0.0 | 0.0 | 0.00 | 0.01 | 0.00 | 70 | 1014.2 |
| 20260508104956 | 67 | 97 | 0.0 | 1.0 | 0.00 | 0.01 | 0.00 | 68 | 1014.2 |
| 20260508103958 | 68 | 0 | 0.0 | 0.0 | 0.00 | 0.01 | 0.00 | 68 | 1014.1 |
| 20260508102957 | 68 | 0 | 0.0 | 0.0 | 0.00 | 0.01 | 0.00 | 68 | 1014.1 |
| 20260508101956 | 67 | 241 | 0.0 | 1.0 | 0.00 | 0.01 | 0.00 | 68 | 1014.0 |
| 20260508100956 | 68 | 314 | 1.0 | 10.0 | 0.00 | 0.01 | 0.00 | 68 | 1014.1 |
| 20260508095958 | 69 | 0 | 2.0 | 0.0 | 0.00 | 0.01 | 0.00 | 67 | 1013.9 |
| 20260508094956 | 68 | 68 | 0.0 | 10.0 | 0.00 | 0.01 | 0.00 | 68 | 1013.9 |
| 20260508094006 | 67 | 70 | 1.0 | 3.0 | 0.00 | 0.01 | 0.00 | 69 | 1013.8 |
| 20260508092956 | 67 | 159 | 0.0 | 2.0 | 0.00 | 0.01 | 0.00 | 68 | 1013.8 |
| 20260508090957 | 66 | 96 | 1.0 | 5.0 | 0.00 | 0.01 | 0.00 | 70 | 1013.8 |
| 20260508085958 | 66 | 48 | 0.0 | 2.0 | 0.00 | 0.01 | 0.00 | 70 | 1013.7 |
| 20260508083956 | 65 | 76 | 1.0 | 6.0 | 0.00 | 0.01 | 0.00 | 71 | 1013.7 |
| 20260508082958 | 65 | 66 | 1.0 | 4.0 | 0.00 | 0.01 | 0.00 | 70 | 1013.6 |
| 20260508081957 | 65 | 49 | 1.0 | 6.0 | 0.00 | 0.01 | 0.00 | 70 | 1013.6 |
| 20260508080958 | 65 | 86 | 1.0 | 7.0 | 0.00 | 0.01 | 0.00 | 70 | 1013.5 |
| 20260508075957 | 65 | 130 | 1.0 | 3.0 | 0.00 | 0.01 | 0.00 | 71 | 1013.4 |
| 20260508074957 | 64 | 74 | 2.0 | 1.0 | 0.00 | 0.01 | 0.00 | 72 | 1013.4 |
| 20260508073957 | 64 | 353 | 4.0 | 10.0 | 0.00 | 0.01 | 0.00 | 72 | 1013.3 |
| 20260508072958 | 64 | 339 | 1.0 | 9.0 | 0.00 | 0.01 | 0.00 | 72 | 1013.3 |
| 20260508071957 | 63 | 0 | 0.0 | 0.0 | 0.00 | 0.01 | 0.00 | 72 | 1013.2 |
| 20260508070957 | 63 | 0 | 0.0 | 0.0 | 0.00 | 0.01 | 0.00 | 74 | 1013.2 |
| 20260508065957 | 62 | 54 | 1.0 | 7.0 | 0.00 | 0.01 | 0.00 | 74 | 1013.2 |
| 20260508064957 | 61 | 59 | 0.0 | 5.0 | 0.00 | 0.01 | 0.00 | 76 | 1013.2 |
| 20260508062958 | 59 | 67 | 2.0 | 6.0 | 0.00 | 0.01 | 0.00 | 80 | 1013.1 |
| 20260508061957 | 58 | 0 | 0.0 | 0.0 | 0.00 | 0.01 | 0.00 | 82 | 1013.1 |
| 20260508060957 | 58 | 71 | 0.0 | 3.0 | 0.00 | 0.01 | 0.00 | 80 | 1013.0 |
| 20260508055957 | 58 | 74 | 1.0 | 4.0 | 0.00 | 0.01 | 0.00 | 82 | 1013.0 |
| 20260508054959 | 57 | 75 | 1.0 | 4.0 | 0.00 | 0.01 | 0.00 | 83 | 1013.1 |
| 20260508053958 | 56 | 0 | 0.0 | 0.0 | 0.00 | 0.01 | 0.00 | 85 | 1013.0 |
| 20260508052956 | 55 | 0 | 0.0 | 0.0 | 0.00 | 0.01 | 0.00 | 85 | 1013.0 |
| 20260508050957 | 54 | 86 | 0.0 | 2.0 | 0.00 | 0.01 | 0.00 | 88 | 1012.8 |
| 20260508050000 | 53 | 85 | 1.0 | 3.0 | 0.00 | 0.01 | 0.00 | 88 | 1012.9 |
| 20260508043958 | 53 | 54 | 0.0 | 3.0 | 0.00 | 0.01 | 0.00 | 88 | 1012.7 |
| 20260508042957 | 53 | 0 | 0.0 | 0.0 | 0.00 | 0.01 | 0.00 | 88 | 1012.5 |
| 20260508041956 | 52 | 74 | 0.0 | 1.0 | 0.00 | 0.01 | 0.00 | 90 | 1012.4 |
| 20260508035958 | 51 | 37 | 5.0 | 7.0 | 0.00 | 0.01 | 0.00 | 91 | 1012.2 |
| 20260508034957 | 51 | 40 | 5.0 | 9.0 | 0.00 | 0.01 | 0.00 | 91 | 1012.2 |
| 20260508033956 | 51 | 30 | 1.0 | 6.0 | 0.00 | 0.01 | 0.00 | 90 | 1012.2 |
| 20260508033006 | 51 | 0 | 0.0 | 0.0 | 0.00 | 0.01 | 0.00 | 90 | 1012.2 |
| 20260508031957 | 52 | 0 | 0.0 | 0.0 | 0.00 | 0.01 | 0.00 | 89 | 1012.2 |
| 20260508030956 | 52 | 0 | 3.0 | 0.0 | 0.00 | 0.01 | 0.00 | 89 | 1012.2 |
| 20260508024957 | 52 | 27 | 3.0 | 5.0 | 0.00 | 0.01 | 0.00 | 89 | 1012.4 |
| 20260508023957 | 51 | 16 | 4.0 | 4.0 | 0.00 | 0.01 | 0.00 | 90 | 1012.4 |
| 20260508022956 | 52 | 0 | 0.0 | 0.0 | 0.00 | 0.01 | 0.00 | 88 | 1012.5 |
| 20260508021957 | 52 | 0 | 0.0 | 0.0 | 0.00 | 0.01 | 0.00 | 88 | 1012.5 |
| 20260508020957 | 52 | 0 | 0.0 | 0.0 | 0.00 | 0.01 | 0.00 | 87 | 1012.6 |
| 20260508020002 | 52 | 0 | 0.0 | 0.0 | 0.00 | 0.01 | 0.00 | 88 | 1012.8 |
| 20260508013957 | 52 | 0 | 0.0 | 0.0 | 0.00 | 0.01 | 0.00 | 88 | 1012.9 |
| 20260508012958 | 52 | 0 | 0.0 | 0.0 | 0.00 | 0.01 | 0.00 | 87 | 1013.0 |
| 20260508011957 | 52 | 0 | 0.0 | 0.0 | 0.00 | 0.01 | 0.00 | 88 | 1013.1 |
| 20260508010957 | 52 | 0 | 0.0 | 0.0 | 0.00 | 0.01 | 0.00 | 89 | 1013.1 |
| 20260508005959 | 52 | 0 | 0.0 | 0.0 | 0.00 | 0.01 | 0.00 | 88 | 1013.1 |
| 20260508004957 | 52 | 0 | 0.0 | 0.0 | 0.00 | 0.01 | 0.00 | 88 | 1013.2 |